Regional Weather Roundup
Issued by NWS

Home | Current Version | Previous Version | Graphics & Text | Print | Product List | Glossary Off
Versions: 1 2 3 4 5 6 7 8 9 10 11 12 13 14 15 16 17 18 19 20 21 22 23 24 25 26 27 28 29 30 31 32 33 34 35 36 37 38 39 40 41 42 43 44 45 46 47 48 49 50

000
ASUS43 KMKX 231800
RWRWI

WISCONSIN REGIONAL WEATHER ROUNDUP
NATIONAL WEATHER SERVICE MILWAUKEE/SULLIVAN WI
100 PM CDT SAT SEP 23 2017

NOTE: "FAIR" INDICATES FEW OR NO CLOUDS BELOW 12,000 FEET WITH NO
SIGNIFICANT WEATHER AND/OR OBSTRUCTIONS TO VISIBILITY.

WIZ001-002-006>008-014>016-023>028-231900-
NORTHWEST WISCONSIN

CITY           SKY/WX    TMP DP  RH WIND       PRES   REMARKS
SUPERIOR ARPT  SUNNY     84  72  67 SW7       29.92S HX  90
ASHLAND        PTSUNNY   84  71  65 S9        29.95S HX  89
6HR MIN TEMP:  74; 6HR MAX TEMP:  87;

HAYWARD        SUNNY     83  70  64 S12       29.99S HX  87
6HR MIN TEMP:  72; 6HR MAX TEMP:  83;

SIREN          SUNNY     84  69  60 S7        29.96S HX  88
CUMBERLAND     SUNNY     81  68  65 S12       29.99F HX  83
RICE LAKE      SUNNY     84  68  59 S10G17    30.01S HX  87
CHETEK         SUNNY     83  72  68 S8        30.00F HX  88
LADYSMITH      SUNNY     83  70  64 S7        30.03F HX  87
EAU CLAIRE     NOT AVBL
MENOMONIE      MOSUNNY   84  70  62 S8        30.00F HX  88
NEW RICHMOND   SUNNY     84  67  56 S12       29.98S HX  87
OSCEOLA        SUNNY     85  69  60 S10       29.99S HX  89
$$

WIZ003>005-009-010-017-018-231900-
NORTH CENTRAL WISCONSIN

CITY           SKY/WX    TMP DP  RH WIND       PRES   REMARKS
MANITOWISH WTR NOT AVBL
ARBOR VITAE    SUNNY     84  70  63 SW12G18   30.04S HX  88
WOODRUFF       SUNNY     84  70  63 SW12G18   30.04S HX  88
RHINELANDER    SUNNY     84  69  60 SW13G22   30.06S HX  88
6HR MIN TEMP:  70; 6HR MAX TEMP:  84;

EAGLE RIVER    SUNNY     83  66  56 SW15G21   30.04S HX  85
LAND O LAKES   SUNNY     84  68  58 S9        30.06R HX  86
PHILLIPS       MOSUNNY   81  70  69 SW9       30.03R HX  85
TOMAHAWK       MOSUNNY   84  68  57 SW3       30.05S HX  87
MEDFORD        MOSUNNY   83  68  60 SW14      30.06S HX  86
MERRILL        SUNNY     85  69  58 SW14      30.06S HX  88
$$

WIZ029-030-035-036-043>047-231900-
CENTRAL WISCONSIN

CITY           SKY/WX    TMP DP  RH WIND       PRES   REMARKS
WAUSAU         SUNNY     85  66  53 SW12      30.04F HX  87
6HR MIN TEMP:  67; 6HR MAX TEMP:  86;

MOSINEE        PTSUNNY   84  66  54 SW14G20   30.07F HX  86
MARSHFIELD     SUNNY     86  65  49 SW15G25   30.05F HX  88
6HR MIN TEMP:  64; 6HR MAX TEMP:  87;

STEVENS POINT  SUNNY     85  66  54 SW10G17   30.07S HX  87
WAUPACA        SUNNY     90  67  47 SW12      30.07F HX  92
WAUTOMA        MOSUNNY   89  69  51 SW10      30.06F HX  93
6HR MIN TEMP:  60; 6HR MAX TEMP:  90;

WISC RAPIDS    MOSUNNY   87  69  54 SW8G17    30.07F HX  91
6HR MIN TEMP:  65; 6HR MAX TEMP:  89;

CAMP DOUGLAS   NOT AVBL
$$

WIZ011>013-019>022-031-037>040-048>050-231900-
NORTHEAST WISCONSIN

CITY           SKY/WX    TMP DP  RH WIND       PRES   REMARKS
ANTIGO         SUNNY     84  66  55 SW14G21   30.08S HX  86
SHAWANO        SUNNY     89  67  48 SW8       30.05F HX  92
OCONTO         SUNNY     88  68  51 SW9       30.05S HX  91
STURGEON BAY   SUNNY     90  66  45 W16       30.06F HX  92
6HR MIN TEMP:  71; 6HR MAX TEMP:  90;

GREEN BAY      SUNNY     88  70  55 S8        30.07S HX  93
6HR MIN TEMP:  66; 6HR MAX TEMP:  88;

MANITOWOC      SUNNY     86  69  56 SE9       30.08F HX  90
6HR MIN TEMP:  65; 6HR MAX TEMP:  86;

APPLETON       MOSUNNY   88  63  42 SW8       30.07F HX  88
CLINTONVILLE   SUNNY     88  66  48 SW8       30.06S HX  90
OSHKOSH        SUNNY     88  66  48 SW9       30.07F HX  90
6HR MIN TEMP:  66; 6HR MAX TEMP:  89;

$$

WIZ032>034-041-042-053>061-231900-
SOUTHWEST WISCONSIN

CITY           SKY/WX    TMP DP  RH WIND       PRES   REMARKS
LA CROSSE      SUNNY     92  68  45 S10       30.01F HX  96
6HR MIN TEMP:  72; 6HR MAX TEMP:  92;

SPARTA         SUNNY     87  67  51 W8G16     30.05S HX  89
VIROQUA        SUNNY     87  67  52 S13       30.07F HX  90
BOSCOBEL       MOSUNNY   92  66  42 VRB5      30.04F HX  94
6HR MIN TEMP:  64; 6HR MAX TEMP:  93;

PRAIRIE DU CHI SUNNY     89  63  41 S8        30.04S HX  90
PLATTEVILLE    SUNNY     90  65  44 SW5       30.08F HX  92
$$

WIZ056-057-062-063-064-067-068-231900-
SOUTH CENTRAL WISCONSIN

CITY           SKY/WX    TMP DP  RH WIND       PRES   REMARKS
REEDSBURG      SUNNY     88  67  50 SW6       30.07S HX  91
BARABOO/DELLS  SUNNY     87  63  44 SW8       30.08S HX  88
LONE ROCK      NOT AVBL
MINERAL POINT  SUNNY     91  63  38 S8        30.09S HX  92
MADISON        MOSUNNY   89  64  43 VRB7      30.07F HX  90
6HR MIN TEMP:  65; 6HR MAX TEMP:  90;

MIDDLETON      SUNNY     91  61  36 W6        30.08F HX  91
WATERTOWN      SUNNY     90  65  44 SW6       30.09S HX  91
MONROE         SUNNY     90  59  35 S9        30.09  HX  89
JANESVILLE     MOSUNNY   91  61  35 W3        30.08F HX  91
$$

WIZ051-052-058>065-066-070>072-231900-
SOUTHEAST WISCONSIN

CITY           SKY/WX    TMP DP  RH WIND       PRES   REMARKS
MILWAUKEE      MOSUNNY   89  69  51 SE12      30.09S HX  93
6HR MIN TEMP:  74; 6HR MAX TEMP:  91;

WAUKESHA       MOSUNNY   88  64  45 S3        30.11F HX  89
MILWAUKEE/TIMM SUNNY     91  55  29 S7        30.10F HX  89
RACINE         SUNNY     87  69  54 SE9       30.11F HX  91
6HR MIN TEMP:  73; 6HR MAX TEMP:  88;

BURLINGTON     SUNNY     91  65  41 CALM      30.09F HX  93
KENOSHA        SUNNY     92  66  42 VRB5      30.09F HX  94
6HR MIN TEMP:  68; 6HR MAX TEMP:  93;

FOND DU LAC    SUNNY     88  64  44 SW8       30.08F HX  89
6HR MIN TEMP:  69; 6HR MAX TEMP:  88;

SHEBOYGAN      SUNNY     89  67  47 SW5       30.08F HX  92
6HR MIN TEMP:  63; 6HR MAX TEMP:  90;

WEST BEND        N/A     88  59  37 W6        30.10S HX  87
JUNEAU         SUNNY     86  66  52 S6        30.10F HX  88
$$

LSZ147-162-231900-
LAKE SUPERIOR

STATION/POSITION TIME  TEMP    WIND        PRES    WAVE
                       AIR SEA DIR/SP/G            HT/PER
                 (UTC) (F)     (DEG/KT/KT) (MB)    (FT/S)
W MID LAKE BUOY  1650   62 55  220/  8/ 10 1013.3F   1/ 4
DEVILS ISLAND    1700   69     240/  7/  9 1013.5R
SAXON HARBOR     1730   84     200/  7/ 14 1013.5F
$$

LMZ867-665-643>646-231900-
LAKE MICHIGAN

STATION/POSITION TIME  TEMP    WIND        PRES    WAVE
                       AIR SEA DIR/SP/G            HT/PER
                 (UTC) (F)     (DEG/KT/KT) (MB)    (FT/S)
S GREEN BAY BUOY 1730   73 69  180/  6/  6 1017.8F
N MID LAKE BUOY  1650   69 66  190/ 12/ 14 1018.7R   2/ 4
NORTHPORT PIER   1740   76     150/  8/ 10 1017.6S
KEWAUNEE LAKESHO 1730   66     170/  9/ 10 1017.8S
SHEBOYGAN LAKESH 1700   72     160/ 16/ 17 1018.5F
PORT WASHINGTON  1730   77     170/  4/  6 1020.0S
ATWATER BUOY     1639   71 68  160/  8/  8 1019.4F
MILWAUKEE LAKESH 1730   73      40/  3/  5   N/A
S MID LAKE BUOY  1650   72 71  140/  4/  4 1019.9R   0
KENOSHA   LAKESH 1700   74     170/  8/ 10 1019.0
$$

TC  - TEMPERATURE IN CELSIUS
VSB - VISIBILITY IN STATUTE MILES
WCI - WIND CHILL INDEX
HX  - HEAT INDEX





USA.gov is the U.S. government's official web portal to all federal, state and local government web resources and services.